This demonstration page uses our WeatherBlox Daily Observations layout. Learn more.

38.89511, -77.03637

Hourly Observations for June 23, 2020

Temp ( °F °C ) Dew Point ( °F °C ) Humidity (%) Winds ( mph kmh ) Pressure ( in mb ) Visibility ( mi km ) Precip ( " mm )
12:52 am 00:52 Mostly Cloudy 72 22.2 68 20 87 87 SW 6 9 29.88 1012 10 16.0934 0 0
1:52 am 01:52 Mostly Cloudy 72 22.2 68 20 87 87 WSW 3 6 29.88 1012 10 16.0934 0 0
2:52 am 02:52 Partly Cloudy 71 21.7 68 20 90 90 SSW 3 6 29.86 1011 10 16.0934 0 0
3:52 am 03:52 Partly Cloudy 71 21.7 68 20 90 90 SW 3 6 29.85 1011 10 16.0934 0 0
4:20 am 04:20 Mostly Cloudy 71 21.7 69 20.6 94 94 SSE 5 7 29.85 1011 10 16.0934 0 0
4:52 am 04:52 Mostly Cloudy 71 21.7 68 20 90 90 SE 3 6 29.84 1010 10 16.0934 0 0
5:35 am 05:35 Mostly Cloudy 71 21.7 68 20 90 90 SSE 5 7 29.84 1010 10 16.0934 0 0
5:52 am 05:52 Mostly Cloudy 71 21.7 69 20.6 94 94 S 3 6 29.83 1010 10 16.0934 0 0
6:24 am 06:24 Mostly Cloudy 71 21.7 69 20.6 94 94 Calm 29.84 1010 10 16.0934 0 0
6:52 am 06:52 Mostly Cloudy 72 22.2 69 20.6 91 91 SE 3 6 29.83 1010 10 16.0934 0 0
7:52 am 07:52 Mostly Cloudy 74 23.3 70 21.1 88 88 S 5 7 29.84 1010 10 16.0934 0 0
8:52 am 08:52 Mostly Cloudy 75 23.9 70 21.1 84 84 SSE 7 11 29.83 1010 10 16.0934 0 0
9:52 am 09:52 Mostly Cloudy 77 25 70 21.1 79 79 S 7 11 29.82 1010 10 16.0934 0 0
10:52 am 10:52 Mostly Cloudy 80 26.7 72 22.2 76 76 S 8 13 29.81 1009 10 16.0934 0 0
11:52 am 11:52 Mostly Cloudy 81 27.2 72 22.2 74 74 S 8 13 29.8 1009 10 16.0934 0 0
12:52 pm 12:52 Mostly Cloudy 84 28.9 73 22.8 70 70 SSE 10 17 29.78 1009 10 16.0934 0 0
1:52 pm 13:52 Mostly Cloudy 85 29.4 74 23.3 70 70 S 8 13 29.75 1007 10 16.0934 0 0
2:52 pm 14:52 Mostly Cloudy 87 30.6 74 23.3 65 65 S 13 20 29.72 1007 10 16.0934 0 0
3:52 pm 15:52 Mostly Cloudy 86 30 75 23.9 70 70 S 12 19 29.7 1006 10 16.0934 0 0
4:52 pm 16:52 Mostly Cloudy 86 30 73 22.8 65 65 S 15 24 29.68 1005 10 16.0934 0 0
5:52 pm 17:52 Mostly Cloudy 87 30.6 73 22.8 63 63 S 15 24 29.66 1005 10 16.0934 0 0
6:52 pm 18:52 Sunny 88 31.1 69 20.6 54 54 S 13 20 29.66 1004 10 16.0934 0 0
7:52 pm 19:52 Mostly Cloudy 86 30 70 21.1 59 59 S 10 17 29.67 1005 10 16.0934 0 0
8:52 pm 20:52 Mostly Cloudy 85 29.4 69 20.6 59 59 S 12 19 29.67 1005 10 16.0934 0 0
9:52 pm 21:52 Mostly Cloudy 83 28.3 69 20.6 63 63 SSW 12 19 29.68 1005 10 16.0934 0 0
10:52 pm 22:52 Cloudy 83 28.3 69 20.6 63 63 SSW 14 22 29.68 1005 10 16.0934 0 0
11:52 pm 23:52 Cloudy 82 27.8 69 20.6 65 65 WSW 10 17 29.7 1006 10 16.0934 0 0

Powered by AerisWeather